Weather History for KRMY - November, 2013

Change the Weather History Date:

Monday, November 25, 2013

  Actual Average (KBTL) Record (KBTL)
Temperature  
Mean Temperature 24 °F 35 °F  
Max Temperature 31 °F 43 °F - ()
Min Temperature 17 °F 27 °F - ()
Degree Days  
Heating Degree Days 41 30  
Month to date heating degree days 619  
Since 1 July heating degree days 1281  
Cooling Degree Days 0 0  
Month to date cooling degree days 0  
Year to date cooling degree days 578  
Moisture  
Dew Point 13 °F    
Average Humidity 64    
Maximum Humidity 91    
Minimum Humidity 44    
Precipitation  
Precipitation 0.00 in 0.08 in - ()
Month to date precipitation 2.41  
Year to date precipitation 30.74  
Sea Level Pressure  
Sea Level Pressure 30.17 in    
Wind  
Wind Speed 10 mph (SSW)    
Max Wind Speed 16 mph    
Max Gust Speed 26 mph    
Visibility 10 miles    
Events Snow    
T = Trace of Precipitation, MM = Missing Value Source: NWS Daily Summary

Daily Weather History Graph

Daily Weather History Graph

Search for Another Location

Airport or City:

Trip Planner

Search our weather history database for the weather conditions in past years. The results will help you decide how hot, cold, wet, or windy it might be!

Date:

Astronomy

Nov. 25, 2013 Rise Set
Actual Time 7:42 AM EST 5:10 PM EST
Civil Twilight 7:11 AM EST 5:41 PM EST
Nautical Twilight 6:37 AM EST 6:16 PM EST
Astronomical Twilight 6:03 AM EST 6:49 PM EST
Moon No Moon Rise 12:54 PM EST (11/25)
Length of Visible Light 10h 30m
Length of Day
9h 28m
Waning Gibbous, 51% of the Moon is Illuminated
Nov 25
Waning Gibbous
Nov 25
Last Quarter
Dec 2
New
Dec 9
First Quarter
Dec 17
Full

Hourly Weather History & Observations

Time (EST) Temp. Windchill Dew Point Humidity Pressure Visibility Wind Dir Wind Speed Gust Speed Precip Events Conditions
12:14 AM 17.8 °F 7.5 °F 7.3 °F 64% 30.37 in 10.0 mi SSW 8.1 mph - N/A   Clear
12:34 AM 17.8 °F 6.6 °F 6.6 °F 62% 30.36 in 10.0 mi SSW 9.2 mph - N/A   Clear
12:54 AM 18.0 °F 7.7 °F 6.4 °F 61% 30.35 in 10.0 mi SW 8.1 mph - N/A   Clear
1:13 AM 18.1 °F 6.3 °F 5.9 °F 59% 30.35 in 10.0 mi SW 10.4 mph - N/A   Clear
1:34 AM 18.0 °F 6.1 °F 5.9 °F 59% 30.35 in 10.0 mi SW 10.4 mph - N/A   Clear
1:54 AM 18.0 °F 7.7 °F 5.7 °F 59% 30.35 in 10.0 mi SSW 8.1 mph - N/A   Clear
2:14 AM 17.6 °F 8.2 °F 5.9 °F 60% 30.35 in 10.0 mi SSW 6.9 mph - N/A   Clear
2:34 AM 18.0 °F 7.7 °F 5.9 °F 59% 30.35 in 10.0 mi SSW 8.1 mph - N/A   Clear
2:54 AM 18.0 °F 6.9 °F 5.9 °F 59% 30.34 in 10.0 mi SSW 9.2 mph - N/A   Clear
3:14 AM 17.6 °F 8.2 °F 5.7 °F 60% 30.34 in 10.0 mi SSW 6.9 mph - N/A   Clear
3:34 AM 17.6 °F 8.2 °F 5.9 °F 60% 30.33 in 10.0 mi SSW 6.9 mph - N/A   Clear
3:54 AM 17.8 °F 8.5 °F 5.9 °F 60% 30.32 in 10.0 mi SSW 6.9 mph - N/A   Clear
4:14 AM 18.0 °F 6.9 °F 5.9 °F 59% 30.31 in 10.0 mi SSW 9.2 mph - N/A   Clear
4:34 AM 18.0 °F 5.4 °F 6.4 °F 61% 30.29 in 10.0 mi SSW 11.5 mph 17.3 mph N/A   Clear
4:53 AM 18.3 °F 6.6 °F 6.8 °F 61% 30.29 in 10.0 mi SSW 10.4 mph 18.4 mph N/A   Clear
5:14 AM 18.3 °F 5.9 °F 7.3 °F 62% 30.27 in 10.0 mi SSW 11.5 mph 17.3 mph N/A   Clear
5:34 AM 18.5 °F 6.8 °F 7.3 °F 62% 30.26 in 10.0 mi SSW 10.4 mph 17.3 mph N/A   Clear
5:53 AM 18.5 °F 7.5 °F 7.5 °F 62% 30.26 in 10.0 mi SSW 9.2 mph - N/A   Clear
6:14 AM 18.9 °F 6.5 °F 7.7 °F 62% 30.26 in 10.0 mi SSW 11.5 mph - N/A   Clear
6:34 AM 19.2 °F 5.8 °F 7.7 °F 61% 30.24 in 10.0 mi SSW 13.8 mph 17.3 mph N/A   Clear
6:53 AM 19.4 °F 8.6 °F 7.7 °F 60% 30.24 in 10.0 mi SSW 9.2 mph - N/A   Clear
7:14 AM 20.3 °F 9.0 °F 8.4 °F 60% 30.24 in 10.0 mi SSW 10.4 mph - N/A   Clear
7:34 AM 20.7 °F 10.2 °F 8.8 °F 60% 30.23 in 10.0 mi SSW 9.2 mph - N/A   Clear
7:53 AM 21.2 °F 8.3 °F 9.5 °F 61% 30.22 in 10.0 mi SSW 13.8 mph 19.6 mph N/A   Scattered Clouds
8:14 AM 21.6 °F 10.6 °F 10.0 °F 61% 30.21 in 10.0 mi SSW 10.4 mph 21.9 mph N/A   Clear
8:34 AM 22.1 °F 9.5 °F 10.2 °F 60% 30.21 in 10.0 mi SSW 13.8 mph 21.9 mph N/A   Scattered Clouds
8:53 AM 22.6 °F 10.7 °F 10.4 °F 59% 30.20 in 10.0 mi SSW 12.7 mph 20.7 mph N/A   Overcast
9:14 AM 23.2 °F 10.3 °F 10.6 °F 59% 30.21 in 10.0 mi SSW 15.0 mph 20.7 mph N/A   Overcast
9:34 AM 23.9 °F 12.9 °F 10.8 °F 57% 30.20 in 10.0 mi SW 11.5 mph 21.9 mph N/A   Overcast
9:54 AM 24.8 °F 11.9 °F 11.3 °F 57% 30.19 in 10.0 mi SSW 16.1 mph - N/A   Overcast
10:14 AM 25.7 °F 15.1 °F 11.7 °F 55% 30.18 in 10.0 mi SSW 11.5 mph - N/A   Overcast
10:34 AM 25.7 °F 13.5 °F 10.9 °F 54% 30.17 in 10.0 mi SW 15.0 mph 25.3 mph N/A   Overcast
10:54 AM 26.1 °F 15.0 °F 11.3 °F 54% 30.16 in 10.0 mi SSW 12.7 mph - N/A   Overcast
11:14 AM 26.6 °F 15.2 °F 11.7 °F 53% 30.16 in 10.0 mi SSW 13.8 mph 23.0 mph N/A   Overcast
11:34 AM 27.3 °F - 11.8 °F 52% 30.15 in 10.0 mi North - - N/A   Overcast
11:54 AM 27.5 °F - 11.8 °F 52% 30.14 in 10.0 mi North - - N/A   Overcast
12:14 PM 27.5 °F - 11.8 °F 52% 30.14 in 10.0 mi North - - N/A   Overcast
12:34 PM 28.6 °F 18.7 °F 11.8 °F 50% 30.12 in 10.0 mi SSW 11.5 mph - N/A   Mostly Cloudy
12:54 PM 28.4 °F 17.5 °F 11.1 °F 48% 30.11 in 10.0 mi SSW 13.8 mph 21.9 mph N/A   Mostly Cloudy
1:14 PM 29.1 °F 18.4 °F 11.3 °F 47% 30.10 in 10.0 mi SSW 13.8 mph 24.2 mph N/A   Overcast
1:33 PM 29.3 °F 17.7 °F 11.3 °F 47% 30.08 in 10.0 mi SSW 16.1 mph - N/A   Overcast
1:54 PM 30.4 °F - 11.3 °F 45% 30.07 in 10.0 mi North - - N/A   Overcast
2:14 PM 31.3 °F 21.6 °F 11.3 °F 44% 30.07 in 10.0 mi SSW 12.7 mph 20.7 mph N/A   Overcast
2:33 PM 30.6 °F 20.7 °F 10.9 °F 44% 30.07 in 10.0 mi SSW 12.7 mph 25.3 mph N/A   Overcast
2:54 PM 30.2 °F 19.8 °F 11.7 °F 46% 30.06 in 10.0 mi SW 13.8 mph 25.3 mph N/A   Overcast
3:14 PM 30.0 °F 20.5 °F 12.2 °F 48% 30.06 in 10.0 mi SSW 11.5 mph - N/A   Overcast
3:33 PM 29.8 °F 20.3 °F 11.8 °F 47% 30.06 in 10.0 mi SW 11.5 mph 26.5 mph N/A   Overcast
3:54 PM 29.7 °F 19.6 °F 13.1 °F 50% 30.06 in 10.0 mi SW 12.7 mph - N/A   Overcast
4:14 PM 29.3 °F 19.1 °F 14.0 °F 53% 30.06 in 10.0 mi SSW 12.7 mph - N/A   Overcast
4:34 PM 29.3 °F 18.2 °F 15.1 °F 55% 30.06 in 10.0 mi SW 15.0 mph - N/A Snow Light Snow
4:54 PM 27.5 °F - 19.8 °F 73% 30.07 in 1.8 mi North - - N/A Snow Light Snow
5:14 PM 27.3 °F - 20.3 °F 75% 30.06 in 5.0 mi North - - N/A Snow Light Snow
5:34 PM 27.7 °F - 19.4 °F 71% 30.06 in 10.0 mi North - - N/A   Overcast
5:54 PM 27.5 °F - 20.5 °F 75% 30.07 in 7.0 mi North - - N/A Snow Light Snow
6:14 PM 27.5 °F - 21.0 °F 77% 30.07 in 10.0 mi North - - N/A   Overcast
6:34 PM 27.5 °F - 21.9 °F 80% 30.07 in 10.0 mi North - - N/A   Overcast
6:54 PM 27.5 °F - 21.7 °F 79% 30.08 in 10.0 mi North - - N/A   Overcast
7:14 PM 27.5 °F - 21.6 °F 78% 30.08 in 10.0 mi North - - N/A   Overcast
7:34 PM 27.5 °F - 21.4 °F 78% 30.08 in 10.0 mi North - - N/A   Overcast
7:54 PM 28.0 °F - 21.9 °F 78% 30.07 in 10.0 mi North - - N/A   Overcast
8:14 PM 27.9 °F - 22.5 °F 80% 30.07 in 10.0 mi North - - N/A   Overcast
8:34 PM 27.5 °F - 23.0 °F 83% 30.08 in 10.0 mi North - - N/A   Overcast
8:54 PM 27.5 °F - 23.0 °F 83% 30.08 in 10.0 mi North - - N/A   Overcast
9:14 PM 27.9 °F - 23.5 °F 84% 30.08 in 10.0 mi North - - N/A   Overcast
9:34 PM 27.9 °F - 23.5 °F 84% 30.08 in 10.0 mi North - - N/A   Overcast
9:54 PM 27.7 °F 16.1 °F 23.9 °F 86% 30.08 in 10.0 mi SW 15.0 mph - N/A   Overcast
10:14 PM 27.5 °F - 24.3 °F 88% 30.08 in 7.0 mi North - - N/A   Overcast
10:34 PM 27.3 °F 16.6 °F 24.8 °F 90% 30.07 in 5.0 mi SW 12.7 mph - N/A   Overcast
10:54 PM 27.3 °F - 24.8 °F 90% 30.07 in 7.0 mi North - - N/A   Overcast
11:14 PM 27.3 °F - 24.8 °F 90% 30.07 in 10.0 mi North - - N/A   Overcast
11:34 PM 27.5 °F - 24.8 °F 90% 30.07 in 7.0 mi North - - N/A   Overcast
11:54 PM 27.5 °F - 25.2 °F 91% 30.07 in 10.0 mi North - - N/A   Overcast